Location: Mahannah Oil Field
(37.4664°N, 96.6003°W)
Time: 15:05:47
(UTC+00:00)

Courier 1B - Pass Details

Date: 26 January 2021
Orbit: 962 x 1209 km, 28.3° (Epoch: 07 March)

Event Time Altitude Azimuth Distance (km) Brightness Sun altitude
Rises 06:08:23 0° 247° (WSW) 3,762 - -70.0°
Reaches altitude 10° 06:11:20 10° 239° (WSW) 2,776 - -70.2°
Maximum altitude 06:17:22 36° 175° (S) 1,487 - -70.6°
Drops below altitude 10° 06:23:13 10° 111° (ESE) 2,691 - -70.9°
Sets 06:26:01 0° 102° (ESE) 3,632 - -71.0°
